Weather in Kamenka

Russia / Smolensk Oblast     55°00′59″N   32°18′34″E
temp.,
°C
wind,
m/s
gust,
m/s
humid.,
%
clouds,
%
prec.,
mm/h
press.,
hPa
HPBL,
m
4 august, wed
wed400:00+13w36885 0.0 1014112
03:00+11w22925 0.0 101533
06:00+11wsw24915 0.0 101576
09:00+17w34670 0.0 1016580
12:00+21w454566 0.0 10161733
15:00+22w4541100 0.0 10162330
18:00+20wnw235499 0.0 1016538
21:00+16se116616 0.0 101611
5 august, thu
thu500:00+13se227588 0.0 101616
03:00+13se2478100 0.0 101675
06:00+12sse2597100 1.9 1016115
09:00+13e3899100 12.3 1014312
12:00+15se389575 1.8 1014373
15:00+19ssw4685100 3.7 1012911
18:00+18wsw2489100 2.6 1011120
21:00+15wnw1194100 3.1 101115
6 august, fri
fri600:00+14nne229799 0.1 101137
03:00+14nne1199100 0.1 101133
06:00+13ne2499100 0.0 1010100
09:00+15ne4899100 2.8 1007360
12:00+16e4899100 8.1 1008386
15:00+20ese4689100 8.8 1007601
18:00+20e489399 1.4 1004289
21:00+18ese3798100 6.6 1005185
7 august, sat
sat700:00+16se399899 0.1 1006238
03:00+17se3999100 2.3 1006318
06:00+17sse389990 0.8 1007309
09:00+19sse359576 0.8 1007363
12:00+18ssw259757 0.6 1008353
15:00+23sw347296 0.7 1008859
18:00+21wsw4575100 0.1 1008577
21:00+18w3780100 0.2 1010345
8 august, sun
sun800:00+15w26875 0.0 1011233
03:00+11wsw239810 0.0 101254
06:00+12wsw249891 0.0 101395
09:00+16w358575 0.0 1013529
12:00+23wnw125816 0.0 10151106
15:00+25sw22510 0.0 10151374
18:00+24ssw21573 0.0 10151222
21:00+18wnw22800 0.0 101611